Wind_Speed
5 6 6 5 4 3 1 1 1 2 2 3 4 4 4 5 6 6 7 8 9 9 10 10 11 11 11 12 13 13 13 13 14 15 15 15 16 16 16 16 16 16 17 16 16 15 14 13 12
5 6 6 5 5 4 3 2 2 3 4 4 4 4 5 5 6 7 8 8 9 10 10 11 11 12 13 13 14 15 15 15 16 16 16 17 17 17 18 18 18 18 17 16 16 16 16 14 13
6 6 5 4 4 4 3 3 3 4 6 5 5 5 5 6 7 7 8 9 9 10 10 11 12 13 14 15 16 16 17 17 17 18 18 18 19 19 19 20 20 19 18 17 17 17 17 16 15
7 6 5 5 5 5 4 5 5 5 6 6 5 5 6 6 7 8 9 9 9 10 11 12 13 14 15 16 17 18 18 19 20 20 20 21 20 21 21 21 21 20 20 19 19 18 18 17 16
8 7 6 6 6 6 6 6 6 6 6 6 6 6 6 7 8 9 9 10 10 11 12 13 14 15 16 17 17 19 20 21 21 22 21 22 22 22 22 22 22 22 22 21 20 20 19 18 17
9 8 7 8 7 7 6 6 6 7 6 6 6 7 7 8 8 9 10 11 11 12 14 15 15 16 16 17 19 20 21 22 23 23 23 23 24 23 24 24 24 24 23 23 22 21 20 19 19
10 9 9 9 8 7 6 7 7 7 7 7 7 7 8 8 9 9 10 11 12 13 14 15 16 16 17 18 19 20 21 22 23 24 25 25 25 25 25 25 24 25 24 24 24 22 21 21 20
11 10 10 11 9 8 7 7 8 8 8 7 7 7 7 8 9 9 10 11 12 13 14 15 16 16 17 18 19 19 20 21 22 23 25 26 25 25 26 26 25 25 25 25 25 24 23 22 22
12 12 12 11 9 9 8 8 8 8 7 7 7 7 7 8 8 9 10 11 12 13 13 15 15 16 16 17 17 18 18 20 21 22 23 25 26 26 27 27 27 27 27 26 26 26 25 23 22
14 13 12 10 9 9 9 8 8 8 7 6 6 7 7 7 8 9 10 11 12 12 13 13 14 15 16 16 17 17 18 18 19 20 22 23 25 26 27 27 28 28 28 27 26 26 26 25 24
15 13 12 11 10 10 10 9 8 8 8 7 7 7 7 8 8 9 10 10 10 11 11 12 14 15 16 16 16 16 17 18 18 19 20 21 23 24 25 27 27 27 28 29 28 27 27 27 26
15 13 12 12 11 10 10 9 9 8 7 7 7 6 7 7 8 9 9 9 9 10 11 13 14 15 15 15 15 16 16 17 17 18 18 19 20 21 23 24 25 26 27 28 29 28 27 27 27
15 13 12 12 11 11 10 9 9 9 8 7 6 6 6 6 7 8 8 9 9 10 12 13 14 14 15 15 15 16 16 16 16 17 17 18 19 20 20 21 23 23 25 26 28 28 27 27 27
15 13 12 12 11 10 10 10 10 9 8 7 6 6 5 6 6 7 7 8 9 11 12 13 14 15 16 16 16 16 16 16 16 17 17 17 18 19 20 20 21 22 23 24 25 26 26 26 27
16 14 13 12 12 11 11 10 10 8 8 7 7 6 5 6 6 6 7 8 10 11 12 13 14 15 16 16 16 15 16 16 17 17 17 17 18 18 19 20 20 21 22 23 24 25 26 26 27
16 15 13 12 12 11 10 10 10 8 8 7 6 6 5 5 6 6 7 8 9 10 12 13 14 15 16 16 16 16 16 17 17 17 17 17 17 17 17 18 20 20 21 22 24 24 26 26 26
16 14 13 12 11 9 9 9 9 9 7 7 6 5 4 5 5 5 6 8 9 11 12 13 14 15 16 16 16 17 17 17 17 16 17 16 16 16 16 17 18 19 19 21 22 24 25 26 26
16 15 13 12 11 10 9 9 8 8 7 6 5 5 4 4 4 5 6 7 9 10 12 13 14 15 16 16 17 18 17 17 17 16 16 16 15 15 15 15 16 16 17 18 20 22 24 24 25
16 14 13 13 12 11 10 9 9 8 7 6 5 4 4 4 4 5 6 7 9 10 11 13 14 15 16 17 18 18 18 17 17 17 16 15 14 13 13 13 13 13 14 16 17 19 21 23 24
15 14 13 12 12 11 10 10 9 8 7 6 5 5 4 4 4 4 5 7 8 10 11 12 14 15 16 17 18 18 18 18 17 17 17 16 14 13 12 11 11 11 12 13 15 17 19 21 23
15 15 14 13 11 10 10 10 9 8 7 7 6 5 5 4 4 4 5 6 8 9 11 12 14 15 16 17 18 18 19 18 18 18 17 16 14 12 10 10 10 9 10 10 12 15 17 19 21
15 14 13 12 11 9 9 9 9 8 7 7 6 6 5 4 4 4 4 6 7 9 10 12 14 15 16 17 18 19 19 19 19 19 18 16 14 12 10 9 9 8 8 8 10 11 14 16 18
14 13 12 10 10 9 9 9 8 8 7 7 7 6 5 4 4 3 4 5 7 8 10 11 13 15 17 18 18 19 19 20 20 19 18 17 14 12 11 10 8 8 7 7 7 9 11 13 15
13 12 10 9 9 9 9 9 9 8 8 8 7 7 5 5 4 4 4 5 6 8 9 11 13 15 17 18 18 19 20 20 20 19 19 17 15 13 11 10 9 8 7 5 5 7 9 11 13
12 11 9 9 9 10 9 8 8 9 9 8 8 7 6 5 5 4 4 5 6 8 9 11 13 15 16 17 18 19 20 20 20 19 19 18 16 14 12 10 9 8 6 5 4 5 7 10 12
11 10 9 9 9 9 9 9 9 9 9 9 9 8 7 6 5 4 4 5 6 8 9 11 12 14 16 17 18 19 20 20 20 19 19 18 17 15 13 12 10 9 7 5 4 3 5 7 10
10 10 9 9 8 8 9 9 9 9 10 10 10 9 8 7 6 5 5 5 6 8 9 10 12 13 15 16 18 18 19 20 20 19 18 18 18 16 15 13 11 9 8 6 4 3 3 5 7
9 8 8 8 8 8 9 9 10 10 10 11 11 10 9 8 7 6 6 6 6 7 8 10 11 13 14 16 17 18 19 19 19 19 19 19 18 17 15 14 12 10 8 6 4 2 3 4 6
9 9 8 8 8 8 9 10 11 11 11 11 11 11 10 9 8 7 6 6 6 7 8 9 10 12 13 15 16 17 18 19 19 19 19 18 18 17 16 15 14 12 10 7 5 3 2 2 4
9 9 8 9 9 9 9 10 11 11 11 11 11 11 10 9 8 7 7 6 7 7 8 9 10 11 12 14 15 16 17 18 19 19 19 18 17 17 16 15 14 13 11 8 6 4 3 2 2
Wind_Direction
326 334 334 351 352 344 318 250 254 276 291 298 300 300 293 287 287 285 290 295 296 292 286 287 282 281 279 277 270 266 263 259 258 256 255 255 253 251 250 250 249 248 245 243 242 241 242 244 247
311 321 327 334 338 334 312 274 280 289 295 296 296 296 293 290 290 290 292 295 295 295 292 289 284 282 280 280 279 273 268 266 262 260 258 257 253 251 251 250 249 249 246 243 242 240 239 242 245
299 307 314 324 332 319 303 284 292 301 299 292 292 294 296 296 295 295 295 297 298 297 296 291 288 285 283 281 280 276 271 269 268 265 261 259 256 254 254 253 251 250 248 246 246 243 241 242 242
291 294 301 307 311 303 293 294 298 299 304 296 289 292 297 298 299 299 299 300 301 299 298 296 292 288 285 282 278 274 273 272 271 269 265 263 260 256 256 255 252 250 249 248 245 243 242 242 242
280 283 293 291 291 290 287 289 292 292 291 294 290 291 296 298 301 301 301 300 301 299 296 297 295 292 289 285 281 277 274 273 271 270 268 266 264 260 258 259 255 251 248 247 246 242 241 239 241
275 279 288 287 283 286 291 289 291 287 288 289 287 290 294 299 304 305 304 301 301 301 300 299 296 293 289 286 284 280 277 274 272 271 269 267 265 265 261 259 256 253 250 248 247 244 241 241 239
272 274 278 283 285 286 291 295 296 291 289 288 287 290 295 302 306 308 308 308 308 307 306 304 301 298 295 292 288 284 281 277 275 273 270 268 268 266 263 261 257 254 252 248 245 244 245 244 240
269 269 278 281 280 289 290 297 301 290 290 289 287 291 297 303 307 310 311 312 313 313 310 308 306 303 299 296 292 288 285 282 278 275 272 268 267 265 262 260 257 253 252 251 248 247 245 244 241
266 266 275 278 281 288 290 299 300 297 291 287 285 288 297 303 308 312 314 315 316 315 315 314 313 311 308 304 299 294 291 287 284 279 275 271 268 266 264 260 257 254 252 252 250 247 246 244 242
258 263 268 269 279 287 289 293 297 295 288 283 282 286 296 303 309 314 317 319 321 323 324 323 323 320 317 312 307 302 296 292 289 284 279 275 271 268 266 263 260 257 254 252 250 245 244 242 242
254 258 262 265 275 281 285 287 287 287 280 276 280 287 298 306 312 316 320 324 326 329 329 329 328 327 324 319 313 308 303 298 294 289 284 279 276 271 268 264 262 260 257 254 251 246 244 241 241
251 255 260 269 275 281 279 280 279 278 276 275 277 288 300 309 315 320 325 330 331 332 332 332 331 330 328 324 319 315 311 306 300 295 291 284 280 277 273 268 264 260 257 254 251 247 244 240 238
248 251 255 266 273 276 272 270 270 269 269 268 272 282 297 308 318 324 329 332 332 332 335 335 336 335 332 329 323 318 315 311 307 301 295 291 286 281 277 272 267 261 257 254 251 249 244 241 237
246 251 255 261 265 269 270 268 268 266 268 272 277 285 297 311 319 324 328 331 333 336 339 341 340 339 336 333 329 325 320 316 311 307 302 296 291 285 279 273 269 264 258 254 250 248 245 242 237
242 247 252 257 262 265 266 265 265 263 267 274 281 285 296 309 315 320 326 331 334 340 343 344 344 344 343 340 336 331 326 321 316 312 307 301 296 289 281 274 270 266 261 254 250 245 244 242 237
236 242 249 253 257 264 259 259 263 264 267 273 279 283 293 304 310 317 326 333 339 345 346 348 349 349 349 347 344 340 334 328 323 317 312 307 301 293 285 277 272 268 264 256 249 244 243 240 237
231 238 243 250 256 262 259 258 260 263 267 269 271 274 285 296 303 314 327 336 344 347 350 352 352 351 350 350 349 346 341 336 331 324 318 313 307 300 293 285 276 269 265 257 249 244 242 239 237
228 233 240 246 254 259 261 256 255 263 266 262 259 266 278 286 297 314 329 340 347 351 353 355 356 355 355 354 352 350 346 342 339 335 328 320 313 305 297 292 283 273 266 259 251 244 242 239 236
222 226 234 246 253 255 257 255 254 259 257 251 251 261 266 279 297 314 330 341 348 352 355 357 358 358 357 356 354 353 352 349 346 343 337 330 322 313 304 297 289 279 268 261 253 244 240 237 234
220 223 233 244 249 251 255 258 255 254 250 244 246 251 259 275 296 310 325 337 346 352 356 358 359 359 359 359 359 358 356 354 352 349 346 340 332 322 315 307 298 286 273 263 255 247 241 237 234
216 221 231 240 248 252 257 258 254 252 243 239 241 245 254 269 288 305 321 335 346 352 357 359 359 359 360 1 0 360 359 357 355 354 351 347 341 334 327 319 310 297 282 269 259 249 241 235 232
215 221 231 239 244 251 249 252 255 250 240 239 239 241 248 261 280 303 322 339 347 352 356 358 359 360 1 1 1 1 1 1 359 357 356 355 351 345 340 331 322 312 296 277 262 249 238 233 231
212 220 229 236 240 249 253 255 255 246 240 238 236 235 242 250 269 292 317 334 344 351 355 357 359 1 1 1 1 2 2 2 2 1 1 0 358 354 348 342 334 324 309 289 265 248 237 231 228
211 221 231 241 245 250 254 255 248 242 239 236 233 232 239 246 260 280 307 326 340 348 352 355 358 0 2 2 3 3 4 4 4 5 5 4 1 357 351 346 343 334 320 301 275 249 235 229 227
210 222 238 245 248 253 252 250 242 239 235 231 231 233 238 245 254 271 299 320 334 343 347 352 356 359 1 3 4 5 5 5 6 7 7 7 5 2 357 351 348 343 331 314 292 254 234 228 226
214 226 235 245 254 253 250 247 241 236 232 229 231 234 238 244 250 263 290 314 329 337 343 349 354 357 0 2 4 5 7 8 8 8 9 10 9 7 4 0 358 356 350 335 315 272 238 228 229
220 231 238 243 246 247 249 246 243 238 232 230 231 234 237 241 246 260 282 306 323 332 339 346 351 355 358 1 3 5 7 9 10 10 10 11 10 10 9 8 7 6 0 348 333 296 257 237 231
226 234 238 238 243 243 245 247 244 239 234 233 234 235 237 239 247 261 278 298 314 326 336 343 348 353 357 360 2 5 8 9 10 10 11 12 12 12 14 13 13 12 8 0 350 312 276 250 236
232 237 244 244 243 246 246 249 245 242 238 236 236 237 236 240 248 259 272 288 304 318 330 339 345 351 355 358 1 3 6 8 8 9 10 11 12 13 14 15 18 18 16 12 10 1 320 262 240
238 243 247 249 252 251 251 249 246 244 240 236 237 238 238 241 248 256 266 280 294 307 321 332 341 347 352 355 358 1 4 6 7 8 9 10 11 13 15 16 18 19 18 17 17 17 5 317 256
Height
5892 5890 5890 5890 5889 5889 5887 5888 5887 5887 5886 5885 5885 5884 5884 5884 5884 5885 5882 5879 5878 5877 5876 5875 5875 5874 5873 5873 5872 5872 5872 5872 5871 5871 5871 5871 5871 5871 5871 5871 5871 5872 5872 5872 5873 5874 5875 5876 5876
5891 5890 5890 5889 5888 5888 5888 5887 5886 5886 5885 5884 5883 5883 5882 5882 5881 5880 5879 5877 5876 5875 5874 5873 5872 5872 5871 5870 5869 5869 5869 5869 5868 5868 5868 5868 5868 5868 5868 5868 5868 5869 5869 5870 5870 5871 5872 5873 5874
5890 5890 5890 5889 5888 5887 5887 5886 5885 5884 5884 5883 5882 5881 5881 5880 5879 5878 5877 5875 5874 5873 5872 5871 5870 5869 5868 5867 5866 5866 5866 5865 5865 5865 5864 5864 5864 5864 5864 5864 5865 5865 5866 5867 5867 5868 5869 5870 5871
5889 5889 5889 5889 5887 5886 5886 5885 5884 5883 5882 5881 5881 5880 5879 5878 5877 5876 5874 5873 5872 5871 5869 5868 5867 5866 5865 5864 5863 5862 5862 5861 5861 5860 5860 5860 5860 5860 5860 5860 5861 5861 5862 5863 5864 5865 5866 5867 5868
5888 5888 5888 5887 5886 5885 5884 5884 5883 5882 5881 5880 5879 5878 5877 5876 5875 5874 5872 5871 5870 5869 5867 5866 5864 5863 5861 5860 5859 5858 5858 5857 5856 5856 5855 5855 5855 5856 5855 5856 5856 5857 5858 5858 5859 5861 5862 5863 5865
5886 5887 5887 5885 5884 5884 5883 5882 5881 5880 5879 5878 5878 5877 5875 5874 5873 5872 5870 5869 5867 5866 5865 5863 5861 5860 5858 5857 5855 5854 5853 5852 5852 5851 5851 5851 5851 5851 5851 5851 5851 5852 5853 5854 5855 5856 5858 5859 5861
5885 5884 5884 5884 5883 5882 5881 5880 5879 5878 5877 5877 5876 5875 5874 5873 5871 5870 5868 5867 5865 5863 5862 5860 5858 5856 5854 5853 5852 5850 5849 5848 5847 5846 5846 5846 5846 5845 5845 5846 5847 5847 5848 5849 5850 5852 5853 5855 5857
5881 5883 5882 5881 5880 5880 5879 5878 5877 5876 5875 5875 5874 5873 5872 5871 5869 5868 5866 5865 5863 5861 5859 5857 5855 5853 5851 5849 5848 5846 5845 5843 5842 5841 5840 5840 5840 5839 5840 5840 5841 5842 5843 5844 5845 5847 5848 5850 5852
5879 5881 5879 5878 5878 5878 5877 5876 5875 5874 5873 5873 5872 5871 5870 5869 5868 5866 5865 5863 5861 5859 5856 5854 5852 5850 5847 5845 5843 5842 5840 5838 5837 5836 5835 5834 5834 5833 5833 5834 5835 5836 5837 5838 5840 5842 5843 5845 5847
5876 5876 5876 5876 5876 5876 5875 5874 5874 5872 5871 5871 5870 5870 5869 5868 5866 5864 5863 5861 5859 5856 5854 5852 5849 5847 5844 5842 5840 5838 5836 5834 5832 5831 5830 5828 5828 5827 5827 5827 5828 5829 5830 5832 5834 5835 5838 5840 5842
5872 5873 5873 5873 5873 5873 5873 5872 5871 5870 5870 5869 5869 5868 5867 5866 5864 5863 5861 5859 5857 5854 5852 5850 5847 5845 5842 5839 5837 5834 5832 5830 5828 5826 5825 5823 5822 5822 5821 5821 5822 5823 5824 5825 5827 5829 5831 5834 5837
5869 5870 5870 5871 5871 5870 5870 5870 5869 5869 5868 5867 5867 5866 5865 5864 5863 5861 5859 5857 5855 5853 5851 5848 5845 5843 5840 5837 5834 5831 5829 5826 5824 5822 5820 5819 5817 5816 5816 5815 5816 5817 5818 5819 5821 5823 5825 5828 5831
5866 5867 5867 5868 5868 5868 5868 5867 5867 5867 5866 5865 5865 5864 5864 5863 5861 5860 5858 5856 5854 5852 5849 5847 5844 5841 5837 5834 5831 5828 5826 5823 5820 5818 5816 5814 5812 5811 5810 5810 5810 5810 5811 5813 5814 5816 5819 5822 5825
5862 5864 5865 5865 5866 5865 5865 5865 5865 5865 5864 5864 5863 5863 5862 5861 5860 5859 5857 5855 5853 5850 5848 5845 5842 5839 5835 5832 5829 5826 5822 5819 5817 5814 5812 5810 5808 5806 5805 5805 5805 5805 5805 5807 5808 5810 5813 5816 5819
5859 5861 5862 5863 5863 5863 5863 5863 5863 5863 5862 5862 5862 5861 5861 5860 5859 5857 5856 5854 5852 5849 5846 5843 5840 5837 5833 5830 5826 5823 5820 5816 5813 5810 5808 5805 5803 5801 5800 5799 5799 5799 5799 5800 5802 5804 5807 5810 5813
5856 5858 5860 5860 5860 5860 5862 5861 5861 5860 5860 5860 5860 5859 5859 5858 5857 5856 5854 5853 5850 5848 5845 5842 5838 5835 5831 5828 5824 5820 5817 5813 5810 5807 5804 5801 5798 5796 5795 5794 5793 5793 5793 5794 5796 5798 5801 5804 5807
5853 5855 5857 5858 5858 5858 5859 5859 5859 5859 5859 5858 5858 5858 5858 5857 5856 5855 5853 5851 5849 5847 5844 5841 5837 5834 5830 5826 5822 5818 5814 5810 5807 5803 5800 5797 5794 5792 5790 5789 5788 5788 5788 5789 5790 5792 5795 5798 5801
5851 5852 5854 5855 5856 5856 5856 5857 5857 5857 5857 5857 5857 5856 5856 5856 5855 5854 5852 5850 5848 5846 5843 5840 5836 5832 5829 5825 5821 5817 5812 5808 5804 5800 5797 5794 5791 5788 5786 5784 5783 5782 5783 5783 5785 5786 5789 5792 5795
5847 5850 5852 5853 5853 5854 5854 5855 5855 5855 5855 5855 5855 5855 5855 5855 5854 5853 5851 5849 5847 5845 5842 5839 5835 5832 5828 5824 5819 5815 5811 5806 5802 5798 5794 5791 5787 5785 5782 5780 5779 5778 5778 5778 5779 5781 5784 5786 5789
5845 5847 5849 5850 5851 5852 5852 5853 5853 5853 5853 5853 5854 5854 5854 5853 5853 5852 5850 5848 5846 5844 5841 5838 5835 5831 5827 5823 5818 5814 5809 5805 5801 5796 5792 5788 5785 5782 5779 5777 5776 5775 5774 5774 5775 5776 5779 5781 5784
5842 5845 5847 5848 5849 5849 5850 5851 5851 5851 5851 5852 5852 5852 5852 5852 5852 5851 5849 5848 5846 5843 5841 5837 5834 5830 5826 5822 5818 5813 5809 5804 5800 5795 5791 5786 5782 5779 5777 5775 5773 5772 5771 5771 5771 5772 5774 5777 5779
5840 5842 5844 5846 5847 5847 5849 5849 5849 5849 5850 5850 5851 5851 5851 5851 5850 5849 5848 5847 5845 5843 5840 5837 5834 5830 5826 5821 5817 5813 5808 5803 5799 5794 5789 5785 5781 5778 5775 5773 5771 5769 5768 5768 5768 5769 5770 5772 5775
5838 5840 5842 5843 5844 5846 5846 5847 5848 5847 5848 5849 5849 5849 5850 5850 5849 5848 5847 5846 5844 5842 5839 5836 5833 5829 5825 5821 5817 5812 5808 5803 5798 5793 5789 5784 5780 5777 5774 5771 5769 5768 5766 5766 5765 5766 5767 5769 5771
5837 5839 5840 5841 5843 5844 5844 5845 5846 5846 5847 5847 5848 5848 5848 5848 5848 5847 5846 5845 5843 5841 5839 5836 5833 5829 5825 5821 5816 5812 5807 5802 5798 5793 5788 5784 5780 5776 5773 5770 5768 5766 5765 5764 5763 5764 5764 5766 5768
5836 5838 5840 5841 5841 5842 5842 5843 5844 5844 5845 5845 5846 5846 5847 5847 5846 5846 5845 5844 5842 5840 5838 5835 5832 5829 5825 5820 5816 5812 5807 5802 5798 5793 5788 5784 5780 5776 5773 5770 5767 5765 5763 5762 5762 5762 5762 5764 5766
5834 5837 5839 5840 5840 5841 5840 5841 5842 5842 5842 5843 5844 5845 5845 5845 5845 5844 5844 5843 5841 5839 5837 5834 5831 5828 5824 5820 5816 5812 5807 5802 5798 5793 5789 5784 5780 5776 5773 5770 5767 5764 5763 5762 5761 5761 5761 5762 5764
5833 5834 5836 5838 5838 5839 5839 5839 5840 5840 5840 5841 5842 5843 5843 5843 5843 5843 5842 5841 5840 5838 5836 5834 5831 5828 5824 5820 5816 5812 5807 5803 5798 5794 5789 5785 5781 5777 5773 5770 5767 5764 5762 5761 5760 5760 5760 5761 5762
5832 5833 5834 5835 5836 5837 5838 5837 5838 5838 5838 5839 5840 5841 5841 5842 5841 5841 5840 5840 5838 5837 5835 5833 5830 5827 5824 5820 5816 5812 5808 5803 5799 5794 5790 5786 5781 5777 5774 5770 5767 5764 5762 5761 5760 5759 5759 5760 5760
5831 5832 5832 5833 5834 5835 5836 5838 5835 5836 5836 5837 5838 5839 5839 5840 5839 5839 5839 5838 5837 5835 5834 5832 5829 5826 5823 5820 5816 5812 5808 5804 5799 5795 5791 5786 5782 5778 5775 5771 5768 5765 5763 5761 5760 5759 5759 5759 5759
5829 5830 5831 5832 5832 5832 5833 5836 5833 5833 5834 5834 5835 5836 5837 5837 5837 5837 5837 5836 5835 5834 5832 5830 5828 5825 5822 5819 5816 5812 5808 5804 5800 5796 5791 5787 5783 5779 5776 5772 5769 5766 5764 5762 5760 5759 5759 5759 5759